User: anonymous   Login
Location: Unspecified
(0.0000°N, 0.0000°E)
Time: 07:08:06
(UTC+00:00)
Language:

DIAMOND BLUE - Orbit

View from above orbital plane
View from above orbital plane
View from above satellite
View from above satellite

Ground track
Ground track

The orbit data is extracted from the following two-line orbital elements,

1 42786U 17036X   17291.59474401 +.00001507 +00000-0 +71327-4 0  9995
2 42786 097.4372 349.9291 0011933 195.9499 164.1363 15.20843669017850
Epoch (UTC): 18 October 2017 14:16:25
Eccentricity: 0.0011933
inclination: 97.4372°
perigee height: 495 km
apogee height: 511 km
right ascension of ascending node: 349.9291°
argument of perigee: 195.9499°
revolutions per day: 15.20843669
mean anomaly at epoch: 164.1363°
orbit number at epoch: 1785

The dashed part of the orbit path shows where the satellite is in the earth's shadow,  

DLR